Weather in Glybokaya

Ukraine / Chernovtci District     48˚05′23″N   25˚55′41″E
temp.,
°C
wind,
m/s
gust,
m/s
humid.,
%
clouds,
%
prec.,
mm/h
press.,
hPa
HPBL,
m
27 november, fri
fri2723:00+1˚nnw22480 0.0 102422
02:00nw22540 0.0 102421
05:00wnw115167 0.0 102322
08:00−1˚nw005062 0.0 102222
11:00+5˚nnw113422 0.0 1022170
14:00+6˚nw113460 0.0 1021160
17:00+3˚sw1137100 0.0 102122
20:00+2˚n1145100 0.0 102222
28 november, sat
sat2823:00nw2271100 0.0 102222
02:00+1˚wnw229099 0.0 102177
05:00+1˚wsw2287100 0.0 102133
08:00wsw2289100 0.1 102177
11:00+2˚s1273100 0.0 1021377
14:00+4˚ese1269100 0.0 1019658
17:00+1˚n3497100 0.6 1020173
20:00nnw2296100 2.1 1020166
29 november, sun
sun2923:00nnw2397100 0.4 1020150
02:00wnw1295100 0.5 1020134
05:00−1˚wnw1191100 0.0 102037
08:00−2˚nw2396100 0.1 1021114
11:00nnw3485100 0.3 1021443
14:00n3478100 0.3 1021531
17:00−2˚nw118786 0.0 102121
20:00−3˚w118987 0.0 102221
30 november, mon
mon3023:00−3˚wsw008990 0.0 102321
02:00−3˚nne019796 0.2 102347
05:00−3˚ne0097100 0.3 102324
08:00−3˚ene009797 0.4 102523
11:00−1˚n228591 0.1 1025337
14:00−1˚n228094 0.1 1025512
17:00−2˚nw238398 0.0 1027150
20:00−3˚nw238789 0.0 102843
1 december, tue
tue123:00−4˚wnw229186 0.0 102931
02:00−4˚wnw229277 0.0 102939
05:00−5˚wnw229461 0.0 102930
08:00−5˚wnw229565 0.0 102929
11:00−2˚nnw228133 0.0 1027329
14:00−1˚nne227324 0.0 1025478
17:00−4˚ene11870 0.0 102521
20:00−5˚wsw11880 0.0 102521